Year,Month,Day,Hour,Minute,Value (Times are PST for temperature in C)
2008,07,20,00,00,13.30
2008,07,20,00,01,13.30
2008,07,20,00,02,13.30
2008,07,20,00,03,13.30
2008,07,20,00,04,13.30
2008,07,20,00,05,13.30
2008,07,20,00,06,13.30
2008,07,20,00,07,13.20
2008,07,20,00,08,13.20
2008,07,20,00,09,13.20
2008,07,20,00,10,13.20
2008,07,20,00,11,13.20
2008,07,20,00,12,13.20
2008,07,20,00,13,13.20
2008,07,20,00,14,13.20
2008,07,20,00,15,13.10
2008,07,20,00,16,13.10
2008,07,20,00,17,13.10
2008,07,20,00,18,13.10
2008,07,20,00,19,13.10
2008,07,20,00,20,13.10
2008,07,20,00,21,13.10
2008,07,20,00,22,13.10
2008,07,20,00,23,13.10
2008,07,20,00,24,13.00
2008,07,20,00,25,13.00
2008,07,20,00,26,13.00
2008,07,20,00,27,12.90
2008,07,20,00,28,12.90
2008,07,20,00,29,12.90
2008,07,20,00,30,12.90
2008,07,20,00,31,12.90
2008,07,20,00,32,12.90
2008,07,20,00,33,12.90
2008,07,20,00,34,12.90
2008,07,20,00,35,12.90
2008,07,20,00,36,12.90
2008,07,20,00,37,12.90
2008,07,20,00,38,12.90
2008,07,20,00,39,12.90
2008,07,20,00,40,12.90
2008,07,20,00,41,12.90
2008,07,20,00,42,12.80
2008,07,20,00,43,12.80
2008,07,20,00,44,12.80
2008,07,20,00,45,12.80
2008,07,20,00,46,12.70
2008,07,20,00,47,12.70
2008,07,20,00,48,12.70
2008,07,20,00,49,12.60
2008,07,20,00,50,12.60
2008,07,20,00,51,12.60
2008,07,20,00,52,12.60
2008,07,20,00,53,12.50
2008,07,20,00,54,12.50
2008,07,20,00,55,12.50
2008,07,20,00,56,12.50
2008,07,20,00,57,12.50
2008,07,20,00,58,12.50
2008,07,20,00,59,12.50
2008,07,20,01,00,12.50
2008,07,20,01,01,12.50
2008,07,20,01,02,12.50
2008,07,20,01,03,12.50
2008,07,20,01,04,12.50
2008,07,20,01,05,12.50
2008,07,20,01,06,12.50
2008,07,20,01,07,12.40
2008,07,20,01,08,12.40
2008,07,20,01,09,12.40
2008,07,20,01,10,12.40
2008,07,20,01,11,12.30
2008,07,20,01,12,12.30
2008,07,20,01,13,12.30
2008,07,20,01,14,12.30
2008,07,20,01,15,12.30
2008,07,20,01,16,12.30
2008,07,20,01,17,12.30
2008,07,20,01,18,12.30
2008,07,20,01,19,12.20
2008,07,20,01,20,12.20
2008,07,20,01,21,12.20
2008,07,20,01,22,12.20
2008,07,20,01,23,12.20
2008,07,20,01,24,12.10
2008,07,20,01,25,12.10
2008,07,20,01,26,12.10
2008,07,20,01,27,12.10
2008,07,20,01,28,12.10
2008,07,20,01,29,12.10
2008,07,20,01,30,12.10
2008,07,20,01,31,12.10
2008,07,20,01,32,12.10
2008,07,20,01,33,12.10
2008,07,20,01,34,12.10
2008,07,20,01,35,12.10
2008,07,20,01,36,12.10
2008,07,20,01,37,12.10
2008,07,20,01,38,12.10
2008,07,20,01,39,12.00
2008,07,20,01,40,12.00
2008,07,20,01,41,12.00
2008,07,20,01,42,12.00
2008,07,20,01,43,12.10
2008,07,20,01,44,12.10
2008,07,20,01,45,12.10
2008,07,20,01,46,12.10
2008,07,20,01,47,12.10
2008,07,20,01,48,12.10
2008,07,20,01,49,12.10
2008,07,20,01,50,12.10
2008,07,20,01,51,12.10
2008,07,20,01,52,12.10
2008,07,20,01,53,12.10
2008,07,20,01,54,12.20
2008,07,20,01,55,12.20
2008,07,20,01,56,12.20
2008,07,20,01,57,12.10
2008,07,20,01,58,12.10
2008,07,20,01,59,12.10
2008,07,20,02,00,12.10
2008,07,20,02,01,12.10
2008,07,20,02,02,12.10
2008,07,20,02,03,12.10
2008,07,20,02,04,12.00
2008,07,20,02,05,12.00
2008,07,20,02,06,12.00
2008,07,20,02,07,11.90
2008,07,20,02,08,11.90
2008,07,20,02,09,11.90
2008,07,20,02,10,11.90
2008,07,20,02,11,11.90
2008,07,20,02,12,11.80
2008,07,20,02,13,11.80
2008,07,20,02,14,11.80
2008,07,20,02,15,11.80
2008,07,20,02,16,11.80
2008,07,20,02,17,11.80
2008,07,20,02,18,11.80
2008,07,20,02,19,11.70
2008,07,20,02,20,11.70
2008,07,20,02,21,11.70
2008,07,20,02,22,11.60
2008,07,20,02,23,11.60
2008,07,20,02,24,11.60
2008,07,20,02,25,11.50
2008,07,20,02,26,11.50
2008,07,20,02,27,11.40
2008,07,20,02,28,11.40
2008,07,20,02,29,11.40
2008,07,20,02,30,11.30
2008,07,20,02,31,11.30
2008,07,20,02,32,11.30
2008,07,20,02,33,11.30
2008,07,20,02,34,11.30
2008,07,20,02,35,11.30
2008,07,20,02,36,11.30
2008,07,20,02,37,11.40
2008,07,20,02,38,11.40
2008,07,20,02,39,11.40
2008,07,20,02,40,11.40
2008,07,20,02,41,11.40
2008,07,20,02,42,11.50
2008,07,20,02,43,11.50
2008,07,20,02,44,11.50
2008,07,20,02,45,11.50
2008,07,20,02,46,11.50
2008,07,20,02,47,11.50
2008,07,20,02,48,11.50
2008,07,20,02,49,11.50
2008,07,20,02,50,11.50
2008,07,20,02,51,11.40
2008,07,20,02,52,11.40
2008,07,20,02,53,11.40
2008,07,20,02,54,11.40
2008,07,20,02,55,11.40
2008,07,20,02,56,11.30
2008,07,20,02,57,11.30
2008,07,20,02,58,11.30
2008,07,20,02,59,11.30
2008,07,20,03,00,11.30
2008,07,20,03,01,11.20
2008,07,20,03,02,11.20
2008,07,20,03,03,11.20
2008,07,20,03,04,11.20
2008,07,20,03,05,11.20
2008,07,20,03,06,11.20
2008,07,20,03,07,11.20
2008,07,20,03,08,11.20
2008,07,20,03,09,11.20
2008,07,20,03,10,11.20
2008,07,20,03,11,11.20
2008,07,20,03,12,11.20
2008,07,20,03,13,11.20
2008,07,20,03,14,11.20
2008,07,20,03,15,11.20
2008,07,20,03,16,11.20
2008,07,20,03,17,11.20
2008,07,20,03,18,11.10
2008,07,20,03,19,11.10
2008,07,20,03,20,11.10
2008,07,20,03,21,11.10
2008,07,20,03,22,11.10
2008,07,20,03,23,11.00
2008,07,20,03,24,11.00
2008,07,20,03,25,11.00
2008,07,20,03,26,11.00
2008,07,20,03,27,11.00
2008,07,20,03,28,11.00
2008,07,20,03,29,11.00
2008,07,20,03,30,11.00
2008,07,20,04,02,10.60
2008,07,20,04,03,10.70
2008,07,20,04,04,10.70
2008,07,20,04,05,10.70
2008,07,20,04,06,10.80
2008,07,20,04,07,10.80
2008,07,20,04,08,10.80
2008,07,20,04,09,10.80
2008,07,20,04,10,10.80
2008,07,20,04,11,10.70
2008,07,20,04,12,10.70
2008,07,20,04,13,10.70
2008,07,20,04,14,10.70
2008,07,20,04,15,10.70
2008,07,20,04,16,10.70
2008,07,20,04,17,10.70
2008,07,20,04,18,10.60
2008,07,20,04,19,10.60
2008,07,20,04,20,10.60
2008,07,20,04,21,10.60
2008,07,20,04,22,10.60
2008,07,20,04,23,10.60
2008,07,20,04,24,10.50
2008,07,20,04,25,10.40
2008,07,20,04,26,10.40
2008,07,20,04,27,10.40
2008,07,20,04,28,10.40
2008,07,20,04,29,10.40
2008,07,20,04,30,10.40
2008,07,20,04,31,10.40
2008,07,20,04,32,10.40
2008,07,20,04,33,10.40
2008,07,20,04,34,10.30
2008,07,20,04,35,10.30
2008,07,20,04,36,10.30
2008,07,20,04,37,10.30
2008,07,20,04,38,10.20
2008,07,20,04,39,10.20
2008,07,20,04,40,10.20
2008,07,20,04,41,10.20
2008,07,20,04,42,10.20
2008,07,20,04,43,10.20
2008,07,20,04,44,10.20
2008,07,20,04,45,10.20
2008,07,20,04,46,10.20
2008,07,20,04,47,10.20
2008,07,20,04,48,10.30
2008,07,20,04,49,10.30
2008,07,20,04,50,10.30
2008,07,20,04,51,10.30
2008,07,20,04,52,10.30
2008,07,20,04,53,10.30
2008,07,20,04,54,10.30
2008,07,20,04,55,10.30
2008,07,20,04,56,10.30
2008,07,20,04,57,10.30
2008,07,20,04,58,10.30
2008,07,20,04,59,10.30
2008,07,20,05,00,10.20
2008,07,20,05,01,10.20
2008,07,20,05,02,10.20
2008,07,20,05,03,10.20
2008,07,20,05,04,10.20
2008,07,20,05,05,10.20
2008,07,20,05,06,10.20
2008,07,20,05,07,10.20
2008,07,20,05,08,10.20
2008,07,20,05,09,10.20
2008,07,20,05,10,10.20
2008,07,20,05,11,10.20
2008,07,20,05,12,10.20
2008,07,20,05,13,10.20
2008,07,20,05,14,10.20
2008,07,20,05,15,10.10
2008,07,20,05,16,10.10
2008,07,20,05,17,10.10
2008,07,20,05,18,10.10
2008,07,20,05,19,10.00
2008,07,20,05,20,10.00
2008,07,20,05,21,10.00
2008,07,20,05,22,9.90
2008,07,20,05,23,9.90
2008,07,20,05,24,9.90
2008,07,20,05,25,9.80
2008,07,20,05,26,9.80
2008,07,20,05,27,9.80
2008,07,20,05,28,9.80
2008,07,20,05,29,9.80
2008,07,20,05,30,9.80
2008,07,20,05,31,9.80
2008,07,20,05,32,9.80
2008,07,20,05,33,9.80
2008,07,20,05,34,9.80
2008,07,20,05,35,9.80
2008,07,20,05,36,9.80
2008,07,20,05,37,9.80
2008,07,20,05,38,9.80
2008,07,20,05,39,9.80
2008,07,20,05,40,9.80
2008,07,20,05,41,9.80
2008,07,20,05,42,9.80
2008,07,20,05,43,9.80
2008,07,20,05,44,9.80
2008,07,20,05,45,9.80
2008,07,20,05,46,9.80
2008,07,20,05,47,9.80
2008,07,20,05,48,9.80
2008,07,20,05,49,9.80
2008,07,20,05,50,9.80
2008,07,20,05,51,9.90
2008,07,20,05,52,9.90
2008,07,20,05,53,9.90
2008,07,20,05,54,9.90
2008,07,20,05,55,9.90
2008,07,20,05,56,9.90
2008,07,20,05,57,9.80
2008,07,20,05,58,9.80
2008,07,20,05,59,9.80
2008,07,20,06,00,9.80
2008,07,20,06,01,9.90
2008,07,20,06,02,9.90
2008,07,20,06,03,9.90
2008,07,20,06,04,9.90
2008,07,20,06,05,9.90
2008,07,20,06,06,9.80
2008,07,20,06,07,9.80
2008,07,20,06,08,9.80
2008,07,20,06,09,9.80
2008,07,20,06,10,9.90
2008,07,20,06,11,9.90
2008,07,20,06,12,9.90
2008,07,20,06,13,9.90
2008,07,20,06,14,9.80
2008,07,20,06,15,9.80
2008,07,20,06,16,9.90
2008,07,20,06,17,9.90
2008,07,20,06,18,9.90
2008,07,20,06,19,10.00
2008,07,20,06,20,10.00
2008,07,20,06,21,10.10
2008,07,20,06,22,10.10
2008,07,20,06,23,10.10
2008,07,20,06,24,10.10
2008,07,20,06,25,10.10
2008,07,20,06,26,10.20
2008,07,20,06,27,10.20
2008,07,20,06,28,10.30
2008,07,20,06,29,10.30
2008,07,20,06,30,10.30
2008,07,20,06,31,10.40
2008,07,20,06,32,10.40
2008,07,20,06,33,10.50
2008,07,20,06,34,10.50
2008,07,20,06,35,10.60
2008,07,20,06,36,10.60
2008,07,20,06,37,10.60
2008,07,20,06,38,10.70
2008,07,20,06,39,10.70
2008,07,20,06,40,10.80
2008,07,20,06,41,10.80
2008,07,20,06,42,10.90
2008,07,20,06,43,10.90
2008,07,20,06,44,11.00
2008,07,20,06,45,11.10
2008,07,20,06,46,11.10
2008,07,20,06,47,11.20
2008,07,20,06,48,11.30
2008,07,20,06,49,11.30
2008,07,20,06,50,11.40
2008,07,20,06,51,11.40
2008,07,20,06,52,11.50
2008,07,20,06,53,11.50
2008,07,20,06,54,11.60
2008,07,20,06,55,11.60
2008,07,20,06,56,11.70
2008,07,20,06,57,11.70
2008,07,20,06,58,11.80
2008,07,20,06,59,11.90
2008,07,20,07,00,11.90
2008,07,20,07,01,12.00
2008,07,20,07,02,12.10
2008,07,20,07,03,12.20
2008,07,20,07,04,12.30
2008,07,20,07,05,12.30
2008,07,20,07,06,12.40
2008,07,20,07,07,12.50
2008,07,20,07,08,12.60
2008,07,20,07,09,12.60
2008,07,20,07,10,12.70
2008,07,20,07,11,12.80
2008,07,20,07,12,12.80
2008,07,20,07,13,12.90
2008,07,20,07,14,13.00
2008,07,20,07,15,13.10
2008,07,20,07,16,13.10
2008,07,20,07,17,13.20
2008,07,20,07,18,13.30
2008,07,20,07,19,13.40
2008,07,20,07,20,13.50
2008,07,20,07,21,13.60
2008,07,20,07,22,13.70
2008,07,20,07,23,13.70
2008,07,20,07,24,13.80
2008,07,20,07,25,13.90
2008,07,20,07,26,14.00
2008,07,20,07,27,14.00
2008,07,20,07,28,14.10
2008,07,20,07,29,14.20
2008,07,20,07,30,14.30
2008,07,20,07,31,14.40
2008,07,20,07,32,14.40
2008,07,20,07,33,14.50
2008,07,20,07,34,14.60
2008,07,20,07,35,14.60
2008,07,20,07,36,14.70
2008,07,20,07,37,14.80
2008,07,20,07,38,14.90
2008,07,20,07,39,15.00
2008,07,20,07,40,15.00
2008,07,20,07,41,15.00
2008,07,20,07,42,15.00
2008,07,20,07,43,15.00
2008,07,20,07,44,15.00
2008,07,20,07,45,15.00
2008,07,20,07,46,15.00
2008,07,20,07,47,14.90
2008,07,20,07,48,14.90
2008,07,20,07,49,14.90
2008,07,20,07,50,14.90
2008,07,20,07,51,15.00
2008,07,20,07,52,15.00
2008,07,20,07,53,15.00
2008,07,20,07,54,15.00
2008,07,20,07,55,15.10
2008,07,20,07,56,15.20
2008,07,20,07,57,15.30
2008,07,20,07,58,15.40
2008,07,20,07,59,15.50
2008,07,20,08,00,15.50
2008,07,20,08,01,15.60
2008,07,20,08,02,15.60
2008,07,20,08,03,15.70
2008,07,20,08,04,15.70
2008,07,20,08,05,15.80
2008,07,20,08,06,15.80
2008,07,20,08,07,15.90
2008,07,20,08,08,15.90
2008,07,20,08,09,16.00
2008,07,20,08,10,16.10
2008,07,20,08,11,16.20
2008,07,20,08,12,16.20
2008,07,20,08,13,16.30
2008,07,20,08,14,16.30
2008,07,20,08,15,16.30
2008,07,20,08,16,16.40
2008,07,20,08,17,16.40
2008,07,20,08,18,16.40
2008,07,20,08,19,16.40
2008,07,20,08,20,16.40
2008,07,20,08,21,16.50
2008,07,20,08,22,16.50
2008,07,20,08,23,16.50
2008,07,20,08,24,16.50
2008,07,20,08,25,16.50
2008,07,20,08,26,16.50
2008,07,20,08,27,16.50
2008,07,20,08,28,16.50
2008,07,20,08,29,16.50
2008,07,20,08,30,16.60
2008,07,20,08,31,16.60
2008,07,20,08,32,16.60
2008,07,20,08,33,16.60
2008,07,20,08,34,16.70
2008,07,20,08,35,16.70
2008,07,20,08,36,16.70
2008,07,20,08,37,16.70
2008,07,20,08,38,16.80
2008,07,20,08,39,16.80
2008,07,20,08,40,16.80
2008,07,20,08,41,16.80
2008,07,20,08,42,16.80
2008,07,20,08,43,16.80
2008,07,20,08,44,16.80
2008,07,20,08,45,16.90
2008,07,20,08,46,16.90
2008,07,20,08,47,17.00
2008,07,20,08,48,17.00
2008,07,20,08,49,17.10
2008,07,20,08,50,17.00
2008,07,20,08,51,17.00
2008,07,20,08,52,16.90
2008,07,20,08,53,16.90
2008,07,20,08,54,16.90
2008,07,20,08,55,17.00
2008,07,20,08,56,17.00
2008,07,20,08,57,17.10
2008,07,20,08,58,17.00
2008,07,20,08,59,17.00
2008,07,20,09,00,16.90
2008,07,20,09,01,16.90
2008,07,20,09,02,16.80
2008,07,20,09,03,16.90
2008,07,20,09,04,16.90
2008,07,20,09,05,17.00
2008,07,20,09,06,17.10
2008,07,20,09,07,17.20
2008,07,20,09,08,17.30
2008,07,20,09,09,17.40
2008,07,20,09,10,17.40
2008,07,20,09,11,17.50
2008,07,20,09,12,17.60
2008,07,20,09,13,17.60
2008,07,20,09,14,17.70
2008,07,20,09,15,17.70
2008,07,20,09,16,17.80
2008,07,20,09,17,17.80
2008,07,20,09,18,17.90
2008,07,20,09,19,18.00
2008,07,20,09,20,18.00
2008,07,20,09,21,18.10
2008,07,20,09,22,18.10
2008,07,20,09,23,18.10
2008,07,20,09,24,18.00
2008,07,20,09,25,18.00
2008,07,20,09,26,17.90
2008,07,20,09,27,17.90
2008,07,20,09,28,17.80
2008,07,20,09,29,17.80
2008,07,20,09,30,17.80
2008,07,20,09,31,17.70
2008,07,20,09,32,17.70
2008,07,20,09,33,17.70
2008,07,20,09,34,17.60
2008,07,20,09,35,17.40
2008,07,20,09,36,17.40
2008,07,20,09,37,17.50
2008,07,20,09,38,17.70
2008,07,20,09,39,17.70
2008,07,20,09,40,17.70
2008,07,20,09,41,17.60
2008,07,20,09,42,17.50
2008,07,20,09,43,17.50
2008,07,20,09,44,17.40
2008,07,20,09,45,17.30
2008,07,20,09,46,17.20
2008,07,20,09,47,17.10
2008,07,20,09,48,17.10
2008,07,20,09,49,17.10
2008,07,20,09,50,17.10
2008,07,20,09,51,17.20
2008,07,20,09,52,17.30
2008,07,20,09,53,17.50
2008,07,20,09,54,17.70
2008,07,20,09,55,17.80
2008,07,20,09,56,17.90
2008,07,20,09,57,18.00
2008,07,20,09,58,18.00
2008,07,20,09,59,18.00
2008,07,20,10,00,18.00
2008,07,20,10,01,18.00
2008,07,20,10,02,17.90
2008,07,20,10,03,17.90
2008,07,20,10,04,17.80
2008,07,20,10,05,17.80
2008,07,20,10,06,17.80
2008,07,20,10,07,17.80
2008,07,20,10,08,17.70
2008,07,20,10,09,17.60
2008,07,20,10,10,17.60
2008,07,20,10,11,17.50
2008,07,20,10,12,17.50
2008,07,20,10,13,17.60
2008,07,20,10,14,17.70
2008,07,20,10,15,17.70
2008,07,20,10,16,17.60
2008,07,20,10,17,17.60
2008,07,20,10,18,17.60
2008,07,20,10,19,17.60
2008,07,20,10,20,17.60
2008,07,20,10,21,17.70
2008,07,20,10,22,17.80
2008,07,20,10,23,17.90
2008,07,20,10,24,17.90
2008,07,20,10,25,17.90
2008,07,20,10,26,17.90
2008,07,20,10,27,17.90
2008,07,20,10,28,17.90
2008,07,20,10,29,17.90
2008,07,20,10,30,18.00
2008,07,20,10,31,18.00
2008,07,20,10,32,18.00
2008,07,20,10,33,18.10
2008,07,20,10,34,18.20
2008,07,20,10,35,18.30
2008,07,20,10,36,18.40
2008,07,20,10,37,18.40
2008,07,20,10,38,18.50
2008,07,20,10,39,18.50
2008,07,20,10,40,18.60
2008,07,20,10,41,18.60
2008,07,20,10,42,18.70
2008,07,20,10,43,18.80
2008,07,20,10,44,18.90
2008,07,20,10,45,18.90
2008,07,20,10,46,18.90
2008,07,20,10,47,18.80
2008,07,20,10,48,18.70
2008,07,20,10,49,18.70
2008,07,20,10,50,18.70
2008,07,20,10,51,18.70
2008,07,20,10,52,18.80
2008,07,20,10,53,18.80
2008,07,20,10,54,18.90
2008,07,20,10,55,18.90
2008,07,20,10,56,18.90
2008,07,20,10,57,19.00
2008,07,20,10,58,19.10
2008,07,20,10,59,19.10
2008,07,20,11,00,19.10
2008,07,20,11,01,19.10
2008,07,20,11,02,19.20
2008,07,20,11,03,19.20
2008,07,20,11,04,19.10
2008,07,20,11,05,19.00
2008,07,20,11,06,19.00
2008,07,20,11,07,18.90
2008,07,20,11,08,18.90
2008,07,20,11,09,19.00
2008,07,20,11,10,19.10
2008,07,20,11,11,19.20
2008,07,20,11,12,19.20
2008,07,20,11,13,19.20
2008,07,20,11,14,19.10
2008,07,20,11,15,19.20
2008,07,20,11,16,19.20
2008,07,20,11,17,19.40
2008,07,20,11,18,19.50
2008,07,20,11,19,19.70
2008,07,20,11,20,19.80
2008,07,20,11,21,19.90
2008,07,20,11,22,19.90
2008,07,20,11,23,20.00
2008,07,20,11,24,20.10
2008,07,20,11,25,20.10
2008,07,20,11,26,20.10
2008,07,20,11,27,20.10
2008,07,20,11,28,20.00
2008,07,20,11,29,19.90
2008,07,20,11,30,19.80
2008,07,20,11,31,19.80
2008,07,20,11,32,19.80
2008,07,20,11,33,19.70
2008,07,20,11,34,19.70
2008,07,20,11,35,19.70
2008,07,20,11,36,19.80
2008,07,20,11,37,19.90
2008,07,20,11,38,19.90
2008,07,20,11,39,19.90
2008,07,20,11,40,19.90
2008,07,20,11,41,19.90
2008,07,20,11,42,19.90
2008,07,20,11,43,19.90
2008,07,20,11,44,19.90
2008,07,20,11,45,19.80
2008,07,20,11,46,19.80
2008,07,20,11,47,19.90
2008,07,20,11,48,19.90
2008,07,20,11,49,19.80
2008,07,20,11,50,19.90
2008,07,20,11,51,20.00
2008,07,20,11,52,20.00
2008,07,20,11,53,20.00
2008,07,20,11,54,20.10
2008,07,20,11,55,20.10
2008,07,20,11,56,20.20
2008,07,20,11,57,20.20
2008,07,20,11,58,20.20
2008,07,20,11,59,20.30
2008,07,20,12,00,20.30
2008,07,20,12,01,20.30
2008,07,20,12,02,20.30
2008,07,20,12,03,20.30
2008,07,20,12,04,20.40
2008,07,20,12,05,20.40
2008,07,20,12,06,20.40
2008,07,20,12,07,20.50
2008,07,20,12,08,20.50
2008,07,20,12,09,20.50
2008,07,20,12,10,20.40
2008,07,20,12,11,20.30
2008,07,20,12,12,20.30
2008,07,20,12,13,20.40
2008,07,20,12,14,20.50
2008,07,20,12,15,20.40
2008,07,20,12,16,20.40
2008,07,20,12,17,20.40
2008,07,20,12,18,20.40
2008,07,20,12,19,20.50
2008,07,20,12,20,20.60
2008,07,20,12,21,20.60
2008,07,20,12,22,20.70
2008,07,20,12,23,20.80
2008,07,20,12,24,21.10
2008,07,20,12,25,21.20
2008,07,20,12,26,21.30
2008,07,20,12,27,21.20
2008,07,20,12,28,21.20
2008,07,20,12,29,21.30
2008,07,20,12,30,21.30
2008,07,20,12,31,21.40
2008,07,20,12,32,21.40
2008,07,20,12,33,21.50
2008,07,20,12,34,21.40
2008,07,20,12,35,21.30
2008,07,20,12,36,21.30
2008,07,20,12,37,21.30
2008,07,20,12,38,21.40
2008,07,20,12,39,21.40
2008,07,20,12,40,21.40
2008,07,20,12,41,21.30
2008,07,20,12,42,21.30
2008,07,20,12,43,21.30
2008,07,20,12,44,21.20
2008,07,20,12,45,21.10
2008,07,20,12,46,21.00
2008,07,20,12,47,20.90
2008,07,20,12,48,20.90
2008,07,20,12,49,21.10
2008,07,20,12,50,21.20
2008,07,20,12,51,21.30
2008,07,20,12,52,21.30
2008,07,20,12,53,21.30
2008,07,20,12,54,21.30
2008,07,20,12,55,21.30
2008,07,20,12,56,21.30
2008,07,20,12,57,21.20
2008,07,20,12,58,21.30
2008,07,20,12,59,21.30
2008,07,20,13,00,21.30
2008,07,20,13,01,21.20
2008,07,20,13,02,21.10
2008,07,20,13,03,21.10
2008,07,20,13,04,21.10
2008,07,20,13,05,21.20
2008,07,20,13,06,21.30
2008,07,20,13,07,21.20
2008,07,20,13,08,21.20
2008,07,20,13,09,21.10
2008,07,20,13,10,21.00
2008,07,20,13,11,21.10
2008,07,20,13,12,21.10
2008,07,20,13,13,21.10
2008,07,20,13,14,21.10
2008,07,20,13,15,21.00
2008,07,20,13,16,21.10
2008,07,20,13,17,21.20
2008,07,20,13,18,21.20
2008,07,20,13,19,21.30
2008,07,20,13,20,21.20
2008,07,20,13,21,21.20
2008,07,20,13,22,21.20
2008,07,20,13,23,21.20
2008,07,20,13,24,21.30
2008,07,20,13,25,21.40
2008,07,20,13,26,21.50
2008,07,20,13,27,21.60
2008,07,20,13,28,21.80
2008,07,20,13,29,21.70
2008,07,20,13,30,21.60
2008,07,20,13,31,21.60
2008,07,20,13,32,21.60
2008,07,20,13,33,21.60
2008,07,20,13,34,21.70
2008,07,20,13,35,21.80
2008,07,20,13,36,21.80
2008,07,20,13,37,21.80
2008,07,20,13,38,21.80
2008,07,20,13,39,21.70
2008,07,20,13,40,21.80
2008,07,20,13,41,21.80
2008,07,20,13,42,21.80
2008,07,20,13,43,21.70
2008,07,20,13,44,21.70
2008,07,20,13,45,21.70
2008,07,20,13,46,21.70
2008,07,20,13,47,21.60
2008,07,20,13,48,21.70
2008,07,20,13,49,21.70
2008,07,20,13,50,21.60
2008,07,20,13,51,21.50
2008,07,20,13,52,21.40
2008,07,20,13,53,21.40
2008,07,20,13,54,21.60
2008,07,20,13,55,21.80
2008,07,20,13,56,21.90
2008,07,20,13,57,22.00
2008,07,20,13,58,22.10
2008,07,20,13,59,22.10
2008,07,20,14,00,22.20
2008,07,20,14,01,22.20
2008,07,20,14,02,22.10
2008,07,20,14,03,22.00
2008,07,20,14,04,21.80
2008,07,20,14,05,21.60
2008,07,20,14,06,21.50
2008,07,20,14,07,21.60
2008,07,20,14,08,21.80
2008,07,20,14,09,21.80
2008,07,20,14,10,21.80
2008,07,20,14,11,21.80
2008,07,20,14,12,21.90
2008,07,20,14,13,22.00
2008,07,20,14,14,22.20
2008,07,20,14,15,22.30
2008,07,20,14,16,22.30
2008,07,20,14,17,22.40
2008,07,20,14,18,22.40
2008,07,20,14,19,22.40
2008,07,20,14,20,22.40
2008,07,20,14,21,22.30
2008,07,20,14,22,22.30
2008,07,20,14,23,22.40
2008,07,20,14,24,22.40
2008,07,20,14,25,22.50
2008,07,20,14,26,22.60
2008,07,20,14,27,22.70
2008,07,20,14,28,22.70
2008,07,20,14,29,22.70
2008,07,20,14,30,22.80
2008,07,20,14,31,22.80
2008,07,20,14,32,22.80
2008,07,20,14,33,22.80
2008,07,20,14,34,22.90
2008,07,20,14,35,22.90
2008,07,20,14,36,22.90
2008,07,20,14,37,23.00
2008,07,20,14,38,23.00
2008,07,20,14,39,23.10
2008,07,20,14,40,23.10
2008,07,20,14,41,23.20
2008,07,20,14,42,23.20
2008,07,20,14,43,23.30
2008,07,20,14,44,23.30
2008,07,20,14,45,23.30
2008,07,20,14,46,23.30
2008,07,20,14,47,23.10
2008,07,20,14,48,23.00
2008,07,20,14,49,23.00
2008,07,20,14,50,23.00
2008,07,20,14,51,23.10
2008,07,20,14,52,23.20
2008,07,20,14,53,23.20
2008,07,20,14,54,23.20
2008,07,20,14,55,23.20
2008,07,20,14,56,23.10
2008,07,20,14,57,23.10
2008,07,20,14,58,23.00
2008,07,20,14,59,23.10
2008,07,20,15,00,23.00
2008,07,20,15,01,23.00
2008,07,20,15,02,23.00
2008,07,20,15,03,23.00
2008,07,20,15,04,23.00
2008,07,20,15,05,22.90
2008,07,20,15,06,22.80
2008,07,20,15,07,22.70
2008,07,20,15,08,22.80
2008,07,20,15,09,22.80
2008,07,20,15,10,22.80
2008,07,20,15,11,22.80
2008,07,20,15,12,22.80
2008,07,20,15,13,22.80
2008,07,20,15,14,22.80
2008,07,20,15,15,22.80
2008,07,20,15,16,22.90
2008,07,20,15,17,22.90
2008,07,20,15,18,23.00
2008,07,20,15,19,23.10
2008,07,20,15,20,23.20
2008,07,20,15,21,23.20
2008,07,20,15,22,23.30
2008,07,20,15,23,23.40
2008,07,20,15,24,23.40
2008,07,20,15,25,23.50
2008,07,20,15,26,23.50
2008,07,20,15,27,23.50
2008,07,20,15,28,23.60
2008,07,20,15,29,23.70
2008,07,20,15,30,23.70
2008,07,20,15,31,23.90
2008,07,20,15,32,23.90
2008,07,20,15,33,23.90
2008,07,20,15,34,23.70
2008,07,20,15,35,23.50
2008,07,20,15,36,23.30
2008,07,20,15,37,23.20
2008,07,20,15,38,23.20
2008,07,20,15,39,23.20
2008,07,20,15,40,23.30
2008,07,20,15,41,23.30
2008,07,20,15,42,23.40
2008,07,20,15,43,23.40
2008,07,20,15,44,23.40
2008,07,20,15,45,23.40
2008,07,20,15,46,23.30
2008,07,20,15,47,23.20
2008,07,20,15,48,23.10
2008,07,20,15,49,23.00
2008,07,20,15,50,23.00
2008,07,20,15,51,23.00
2008,07,20,15,52,23.00
2008,07,20,15,53,23.00
2008,07,20,15,54,23.10
2008,07,20,15,55,23.30
2008,07,20,15,56,23.40
2008,07,20,15,57,23.50
2008,07,20,15,58,23.60
2008,07,20,15,59,23.70
2008,07,20,16,00,23.90
2008,07,20,16,01,23.90
2008,07,20,16,02,23.90
2008,07,20,16,03,23.80
2008,07,20,16,04,23.70
2008,07,20,16,05,23.60
2008,07,20,16,06,23.40
2008,07,20,16,07,23.30
2008,07,20,16,08,23.20
2008,07,20,16,09,23.10
2008,07,20,16,10,23.00
2008,07,20,16,11,23.00
2008,07,20,16,12,23.00
2008,07,20,16,13,22.90
2008,07,20,16,14,22.90
2008,07,20,16,15,22.90
2008,07,20,16,16,23.00
2008,07,20,16,17,23.10
2008,07,20,16,18,23.10
2008,07,20,16,19,23.10
2008,07,20,16,20,23.10
2008,07,20,16,21,23.10
2008,07,20,16,22,23.00
2008,07,20,16,23,23.00
2008,07,20,16,24,23.10
2008,07,20,16,25,23.20
2008,07,20,16,26,23.20
2008,07,20,16,27,23.30
2008,07,20,16,28,23.40
2008,07,20,16,29,23.40
2008,07,20,16,30,23.50
2008,07,20,16,31,23.70
2008,07,20,16,32,23.80
2008,07,20,16,33,23.80
2008,07,20,16,34,23.80
2008,07,20,16,35,23.80
2008,07,20,16,36,23.70
2008,07,20,16,37,23.80
2008,07,20,16,38,23.80
2008,07,20,16,39,23.90
2008,07,20,16,40,23.80
2008,07,20,16,41,23.70
2008,07,20,16,42,23.50
2008,07,20,16,43,23.50
2008,07,20,16,44,23.60
2008,07,20,16,45,23.60
2008,07,20,16,46,23.60
2008,07,20,16,47,23.60
2008,07,20,16,48,23.70
2008,07,20,16,49,23.70
2008,07,20,16,50,23.70
2008,07,20,16,51,23.70
2008,07,20,16,52,23.70
2008,07,20,16,53,23.70
2008,07,20,16,54,23.70
2008,07,20,16,55,23.70
2008,07,20,16,56,23.70
2008,07,20,16,57,23.70
2008,07,20,16,58,23.70
2008,07,20,16,59,23.70
2008,07,20,17,00,23.80
2008,07,20,17,01,23.80
2008,07,20,17,02,23.80
2008,07,20,17,03,23.90
2008,07,20,17,04,23.90
2008,07,20,17,05,23.80
2008,07,20,17,06,23.80
2008,07,20,17,07,23.70
2008,07,20,17,08,23.70
2008,07,20,17,09,23.70
2008,07,20,17,10,23.80
2008,07,20,17,11,23.80
2008,07,20,17,12,23.90
2008,07,20,17,13,24.00
2008,07,20,17,14,24.20
2008,07,20,17,15,24.30
2008,07,20,17,16,24.30
2008,07,20,17,17,24.30
2008,07,20,17,18,24.40
2008,07,20,17,19,24.40
2008,07,20,17,20,24.40
2008,07,20,17,21,24.30
2008,07,20,17,22,24.40
2008,07,20,17,23,24.40
2008,07,20,17,24,24.50
2008,07,20,17,25,24.60
2008,07,20,17,26,24.60
2008,07,20,17,27,24.50
2008,07,20,17,28,24.40
2008,07,20,17,29,24.30
2008,07,20,17,30,24.30
2008,07,20,17,31,24.30
2008,07,20,17,32,24.30
2008,07,20,17,33,24.30
2008,07,20,17,34,24.30
2008,07,20,17,35,24.40
2008,07,20,17,36,24.40
2008,07,20,17,37,24.50
2008,07,20,17,38,24.60
2008,07,20,17,39,24.70
2008,07,20,17,40,24.80
2008,07,20,17,41,24.90
2008,07,20,17,42,25.00
2008,07,20,17,43,25.00
2008,07,20,17,44,25.10
2008,07,20,17,45,25.20
2008,07,20,17,46,25.10
2008,07,20,17,47,25.10
2008,07,20,17,48,25.10
2008,07,20,17,49,25.10
2008,07,20,17,50,25.10
2008,07,20,17,51,25.30
2008,07,20,17,52,25.30